User: anonymous   Login
Location: Niedergestelen
(46.3129°N, 7.7822°E)
Time: 16:16:34
(UTC+00:00)
Language:

ARGOS - Orbit

View from above orbital plane
View from above orbital plane
View from above satellite
View from above satellite

Ground track
Ground track

The orbit data is extracted from the following two-line orbital elements,

1 25634U 99008A   21165.93953908 -.00000022  00000-0  93022-5 0  9993
2 25634  98.4183 193.7513 0009239 311.3168  48.7213 14.19396593154904
Epoch (UTC): 14 June 2021 22:32:56
Eccentricity: 0.0009239
inclination: 98.4183°
perigee height: 821 km
apogee height: 834 km
right ascension of ascending node: 193.7513°
argument of perigee: 311.3168°
revolutions per day: 14.19396593
mean anomaly at epoch: 48.7213°
orbit number at epoch: 15490

The dashed part of the orbit path shows where the satellite is in the earth's shadow,  

DLR